Simultaneous Nadir Overpasses (SNOs) Predictions

Prediction of SNOs between GOES-16 and METOP-B Satellite Orbit:

Table of predicted SNOs for the next 14.0 days since TLE Epoch: 10/24/2025
Index Date Time (GOES-16) GOES-16 Lat,Lon METOP-B Lat,Lon Distance(km) Time Diff (sec)
1 10/26/2025 15:58:33 0.05,-104.66 -0.07,-104.19 54.17 80
2 10/28/2025 04:17:42 -0.05,-104.56 -0.98,-108.82 484.61 80
3 10/29/2025 03:54:29 -0.06,-104.53 0.10,-103.85 78.35 80
4 10/30/2025 16:13:31 0.06,-104.55 0.93,-108.45 445.30 80
5 10/31/2025 15:55:37 0.06,-104.52 -0.14,-103.48 117.96 80
6 11/02/2025 04:14:47 -0.06,-104.43 -0.88,-108.11 420.37 80
7 11/03/2025 03:51:33 -0.06,-104.40 0.20,-103.14 142.70 80
8 11/04/2025 16:10:36 0.06,-104.41 0.82,-107.75 381.29 80
9 11/05/2025 15:52:42 0.06,-104.38 -0.26,-102.78 181.82 80
10 11/07/2025 04:11:51 -0.06,-104.28 -0.75,-107.41 356.83 80
